www.pogodaiklimat.ru

Погода и климат >> Архив погоды >> Боливия >> Rurrenabaque


ПОГОДА в Rurrenabaque

  • Прогноз погоды в Rurrenabaque
  • Монитор погоды в Rurrenabaque
  • Климат города

АРХИВ ПОГОДЫ в Rurrenabaque

Время (UTC), дата Ветер
(напр.,м/с)
 
Видим.   Явления Облачность Т
(С)
Тd
(С)
f
(%)
Тe
(С)
Тes
(С)
Комфортность P
(гПа)
Po
(гПа)
Тmin
(С)
Tmax
(С)
R
(мм)
R24
(мм)
S
(см)
12 9.07 ЮВ 4 20 км {дождь} 10/10 300 м
[Sc]
+15.8 +15.1 96 +15 +15 1017.0 993.6 +14.0 2
15 9.07 ЮВ 6 20 км 10/9 360 м
[Sc As trans]
+15.8 +14.2 90 +14 +15 1019.4 995.6
18 9.07 ЮВ 5 20 км 10/10 500 м
[Sc As trans]
+17.0 +14.0 82 +16 +16 1017.6 994.1
21 9.07 ЮВ 3 20 км 10/8 600 м
[Sc As trans]
+16.3 +14.0 86 +16 +16 1016.3 993.8 +18.1
12 10.07 штиль 0 20 км 9/8 900 м
[Sc Ac trans]
+14.8 +12.7 87 +14 +15 1018.8 995.1 +13.0
15 10.07 ЮВ 4 20 км 8/0 2000 м
[Ac trans]
+17.8 +13.3 75 +18 +22 1018.7 995.9
18 10.07 ЮВ 3 20 км 1/1 600 м
[Cu hum]
+20.2 +14.4 69 +23 +33 комфорт 1016.5 993.3
21 10.07 штиль 0 20 км 9/0 2000 м
[Ac trans]
+21.0 +15.8 72 +24 +25 комфорт 1014.5 990.8 +23.0
12 11.07 штиль 0 20 км 6/0 2000 м
[Ac trans]
+15.7 +14.7 94 +15 +17 1019.6 996.0 +11.0
15 11.07 ЮВ 4 20 км 3/0
[Ci fib]
+21.5 +11.6 53 +24 +31 комфорт 1020.6 997.0
18 11.07 ЮВ 3 20 км 4/0
[Ci fib]
+24.0 +14.0 54 +26 +36 жарко 1017.6 994.5
21 11.07 штиль 0 20 км 4/0
[Ci fib]
+23.8 +15.2 59 +27 +29 жарко 1015.9 992.5 +26.4
12 12.07 штиль 0 20 км 6/0
[Ci fib]
+14.0 +12.5 91 +14 +15 994.7 +10.8
15 12.07 штиль 0 20 км 6/0
[Ci fib]
+25.1 +17.8 64 +29 +44 душно 1018.6 995.4
18 12.07 штиль 0 20 км 5/0
[Ci fib]
+27.2 +18.5 59 +32 +47 очень
душно
1016.7 993.3
21 12.07 штиль 0 20 км 8/0
[Ci fib]
+27.0 +19.9 65 +33 +35 очень
душно
1015.5 991.8 +29.3
12 13.07 штиль 0 20 км 8/0
[Ci fib]
+16.2 +14.4 89 +16 +18 1017.3 993.9 +13.7
15 13.07 штиль 0 20 км 9/0
[Ci]
+26.1 +21.4 75 +33 +47 очень
душно
1017.6 994.5
18 13.07 штиль 0 20 км 5/0
[Ci fib]
+28.8 +22.3 68 +38 +52 опасность
солнечного
удара
1015.7 992.3
21 13.07 штиль 0 20 км 4/1 600 м
[Cu hum Ci fib]
+29.0 +23.5 72 +39 +41 очень
душно
1013.8 990.5 +31.1
12 14.07 штиль 0 20 км 1/0 2000 м
[Ac trans]
+18.8 +18.4 98 +20 +22 1014.6 991.5 +16.2
15 14.07 штиль 0 20 км 1/0 2000 м
[Ac trans]
+28.0 +23.2 75 +38 +53 опасность
солнечного
удара
1016.3 992.8
18 14.07 штиль 0 20 км 1/1 600 м
[Cu hum]
+31.5 +23.6 63 +43 +57 опасность
перегрева
1013.6 990.2
21 14.07 СЗ 4 20 км 4/1 600 м
[Cu hum Ac trans]
+30.3 +21.0 58 +38 +39 очень
душно
1011.7 988.6 +33.0
12 15.07 штиль 0 20 км ясно +19.0 +18.7 98 +21 +23 комфорт 1013.5 989.9 +16.1
15 15.07 штиль 0 20 км ясно +27.7 +22.5 73 +36 +53 опасность
солнечного
удара
1014.2 991.0
18 15.07 штиль 0 20 км 1/1 600 м
[Cu hum]
+32.0 +25.1 67 +46 +61 опасность
перегрева
1012.6 989.1
21 15.07 С 3 20 км 1/1 600 м
[Cu hum]
+31.2 +24.1 66 +43 +44 опасность
перегрева
1011.3 988.1 +34.1

 

Местоположение метеостанции Rurrenabaque (Боливия): широта -14.46 долгота -67.56 высота над уровнем моря 204 м.

В архиве по умолчанию представлена погода в Rurrenabaque за последнюю неделю. Архивные данные за месяц целиком и за предыдущие месяцы, начиная с января 2011 года, Вы можете получить, выбрав интересующий диапазон дат из раскрывающегося списка и нажав кнопку "Ввод!".


*Определитесь, кто Вы:
робот инопланетянин человек

Внимание! Время в таблицах - всемирное. Для получения местного времени необходимо прибавить поправку, которая в Rurrenabaque равна -4 ч.

Смотрите также архив погоды в соседних городах и на ближайших метеорологических станциях:

Погода в Reyes (Боливия) (26 км)
Погода в Santa Rosa (Боливия) (78 км)
Погода в San Borja (Боливия) (87 км)
Погода в San Ignacio De Moxo (Боливия) (217 км)
Погода в Ovejuyo (Боливия) (235 км)
Погода в La Paz (Боливия) (238 км)
Погода в Santa Ana (Боливия) (243 км)
Погода в Baures (Боливия) (243 км)
Погода в Puerto Maldonado (Перу) (273 км)
Погода в Trinidad (Боливия) (288 км)

Пояснения к столбцам:

Ветер - указаны скорость ветра в м/с - средняя за 10 мин, порывы в срок и между сроками (в фигурных скобках) и направление, откуда дует ветер: С - северный, СВ - северо-восточный, В - восточный, ЮВ - юго-восточный, Ю - южный, ЮЗ - юго-западный, З - западный, СЗ - северо-западный.
Видимость - горизонтальная дальность видимости в метрах или километрах. При видимости от 1 до 10 км при отсутствии осадков обычно наблюдается дымка, при ухудшении видимости до 1 км и менее - туман. В сухую погоду видимость может ухудшаться дымом, пылью или мглою.
Явления - указаны атмосферные явления, наблюдавшиеся в срок или в последний час перед сроком; фигурными скобками обозначены явления, наблюдавшиеся между сроками (за 1-3 часа до срока); квадратными скобками обозначены град или гололедные отложения с указанием их диаметра в мм.
Облачность - указаны через наклонную черту общая и нижняя облачность в баллах и высота нижней границы облаков в метрах; квадратными скобками обозначены формы облаков: Ci - перистые, Cs - перисто-слоистые, Cc - перисто-кучевые, Ac - высококучевые, As - высокослоистые, Sc - слоисто-кучевые, Ns - слоисто-дождевые, Cu - кучевые, Cb - кучево-дождевые. Подробнее классификацию облаков см. в Атласе облаков (PDF).
T - Температура воздуха - температура, измеренная на высоте 2 м над землей.
Td - Температура точки росы - температура, при понижении до которой содержащийся в воздухе водяной пар достигнет насыщения.
f - Относительная влажность воздуха - влажноcть воздуха, измеренная на высоте 2 м над землей.
Te - Эффективная температура - температура, которую ощущает одетый по сезону человек в тени. Характеристика душности погоды. При расчете учитывается влияние влажности воздуха и скорости ветра на теплоощущения человека.
Tes - Эффективная температура на солнце - температура, которую ощущает человек, с поправкой на солнечный нагрев. Характеристика знойности погоды. Зависит от высоты солнца над горизонтом, облачности и скорости ветра. Ночью, в пасмурную погоду, а также при ветре 12 м/с и более поправка равна нулю.
P - Атмосферное давление - приведенное к уровню моря атмосферное давление.
Po - Атмосферное давление - измеренное на уровне метеостанции атмосферное давление.
Tmin - Минимальная температура - минимум температуры воздуха на высоте 2 м над землей.
Tmax - Максимальная температура - максимум температуры воздуха на высоте 2 м над землей.
R - Количество осадков - Количество выпавших осадков за период времени, мм. При наведении курсора мыши на число - период времени, за который выпало указанное количество осадков.
R24 - Количество осадков - Количество выпавших осадков за 24 часа, мм.
S - Снежный покров - Высота снежного покрова, см. При наведении курсора мыши на число - состояние снежного покрова и степень покрытия местности в баллах.